Location: Oshawa
(43.9000°N, 78.8670°W)
Time: 09:00:36
(UTC-04:00)

ITAMSAT 1 - Visible Passes

Search period start: 30 July 2016 00:00
Search period end: 09 August 2016 00:00
Orbit: 784 x 797 km, 98.8° (Epoch: 29 July)

Date Brightness Start Highest point End Pass type
(mag) Time Alt. Az. Time Alt. Az. Time Alt. Az.
30 Jul 9.1 03:34:35 10° NE 03:39:10 31° E 03:43:05 13° SSE visible
30 Jul 8.5 05:13:57 10° N 05:18:38 35° WNW 05:23:19 10° SW visible
31 Jul 9.9 03:06:15 10° NE 03:09:34 17° E 03:12:51 10° SE visible
31 Jul 7.7 04:44:21 10° N 04:49:29 64° WNW 04:54:05 13° SSW visible
01 Aug 7.8 04:14:58 10° NNE 04:20:11 72° ESE 04:24:19 16° S visible
02 Aug 8.8 03:45:54 10° NNE 03:50:45 39° E 03:54:34 15° SSE visible
02 Aug 8.7 05:25:40 10° N 05:30:04 29° WNW 05:34:27 10° WSW visible
03 Aug 9.6 03:17:17 10° NE 03:21:12 21° E 03:24:49 11° SE visible
03 Aug 8.0 04:55:56 10° N 05:00:57 50° WNW 05:05:33 12° SW visible
04 Aug 10.2 02:50:00 10° ENE 02:51:30 11° E 02:53:00 10° ESE visible
04 Aug 7.6 04:26:28 10° NNE 04:31:42 89° ESE 04:35:48 17° SSW visible
05 Aug 8.4 03:57:17 10° NNE 04:02:20 49° E 04:06:02 17° S visible
05 Aug 9.0 05:37:26 10° NNW 05:41:28 23° WNW 05:45:30 10° WSW visible
06 Aug 9.3 03:28:27 10° NE 03:32:49 27° E 03:36:17 14° SE visible
06 Aug 8.3 05:07:34 10° N 05:12:24 40° WNW 05:17:01 11° SW visible
07 Aug 10.1 03:00:22 10° ENE 03:03:11 15° E 03:05:58 10° ESE visible
07 Aug 7.6 04:38:01 10° N 04:43:12 73° WNW 04:47:16 17° SSW visible
08 Aug 8.0 04:08:43 10° NNE 04:13:52 62° ESE 04:17:31 19° S visible
